This demonstration page uses our WeatherBlox Daily Observations layout. Learn more.

Left ArrowRight Arrow

34.02893, -84.19858

Hourly Observations for August 30, 2015

Temp ( °F °C ) Dew Point ( °F °C ) Humidity (%) Winds ( mph kmh ) Pressure ( in mb ) Visibility ( mi km ) Precip ( " mm )
12:53 am 00:53 Cloudy 73 22.8 66 18.9 79 79 E 3 6 30.09 1019 10 16 0.00 0.00
1:53 am 01:53 Partly Cloudy 73 22.8 65 18.3 76 76 VRB 3 6 30.08 1019 10 16 0.00 0.00
2:53 am 02:53 Mostly Clear 73 22.8 65 18.3 76 76 Calm 30.07 1018 10 16 0.00 0.00
3:53 am 03:53 Cloudy 72 22.2 65 18.3 79 79 Calm 30.07 1018 10 16 0.00 0.00
4:53 am 04:53 Cloudy 71 21.7 65 18.3 81 81 Calm 30.06 1018 10 16 0.00 0.00
5:53 am 05:53 Cloudy 72 22.2 65 18.3 79 79 Calm 30.06 1018 10 16 0.00 0.00
6:53 am 06:53 Cloudy 71 21.7 64 17.8 79 79 VRB 3 6 30.06 1018 10 16 0.00 0.00
7:53 am 07:53 Cloudy 71 21.7 64 17.8 79 79 Calm 30.07 1018 10 16 0.00 0.00
8:53 am 08:53 Mostly Cloudy 72 22.2 64 17.8 76 76 VRB 3 6 30.08 1019 10 16 0.00 0.00
9:53 am 09:53 Cloudy with Light Rain 68 20 65 18.3 90 90 E 3 6 30.11 1020 4 6 0.03 0.76
10:18 am 10:18 Cloudy with Rain 68 20 66 19 94 94 Calm 30.15 1021 2 3 0.00 0.00
10:53 am 10:53 Cloudy with Rain 67 19.4 66 18.9 97 97 E 5 7 30.14 1021 2 3 0.20 5.08
11:23 am 11:23 Cloudy with Rain 66 18.9 64 17.8 93 93 NNE 8 13 30.15 1021 3 4 0.11 2.79
11:31 am 11:31 Cloudy with Light Rain 67 19.4 65 18.3 93 93 NNE 7 11 30.15 1021 6 10 0.11 2.79
11:53 am 11:53 Cloudy 68 20 65 18.3 90 90 VRB 6 9 30.13 1020 9 14 0.11 2.79
12:53 pm 12:53 Cloudy 70 21.1 63 17.2 79 79 VRB 3 6 30.12 1020 10 16 0.00 0.03
1:09 pm 13:09 Mostly Cloudy 70 21.1 63 17.2 79 79 ENE 9 15 30.12 1020 10 16 0.00 0.00
1:53 pm 13:53 Cloudy 71 21.7 63 17.2 76 76 E 7 11 30.11 1020 10 16 0.00 0.00
2:53 pm 14:53 Mostly Cloudy 75 23.9 65 18.3 71 71 ENE 10 17 30.07 1018 10 16 0.00 0.00
3:53 pm 15:53 Cloudy 72 22.2 65 18.3 79 79 VRB 7 11 30.07 1018 10 16 0.00 0.00
4:53 pm 16:53 Cloudy 73 22.8 65 18.3 76 76 VRB 3 6 30.07 1018 10 16 0.00 0.00
5:53 pm 17:53 Cloudy 72 22.2 64 17.8 76 76 VRB 5 7 30.06 1018 10 16 0.00 0.00
6:53 pm 18:53 Cloudy 71 21.7 64 17.8 79 79 VRB 6 9 30.06 1018 10 16 0.00 0.00
7:53 pm 19:53 Mostly Cloudy 70 21.1 64 17.8 82 82 E 5 7 30.05 1018 10 16 0.00 0.00
8:53 pm 20:53 Cloudy 70 21.1 66 18.9 87 87 VRB 5 7 30.07 1018 10 16 0.00 0.00
9:51 pm 21:51 Cloudy 70 21 66 19 88 88 E 7 11 30.09 1019 10 16 0.00 0.00
9:53 pm 21:53 Cloudy 70 21.1 66 18.9 87 87 E 6 9 30.09 1019 10 16 0.00 0.00
10:53 pm 22:53 Cloudy 69 20.6 66 18.9 90 90 VRB 6 9 30.09 1019 10 16 0.00 0.00
11:53 pm 23:53 Cloudy 69 20.6 65 18.3 87 87 VRB 3 6 30.09 1019 10 16 0.00 0.00

Powered by AerisWeather